User: anonymous   Login
Location: Caltech
(34.1382°N, 118.1253°W)
Time: 21:59:41
(UTC-08:00)
Language:

Cosmos 2251 Rocket - Orbit

View from above orbital plane
View from above orbital plane
View from above satellite
View from above satellite

Ground track
Ground track

The orbit data is extracted from the following two-line orbital elements,

1 22676U 93036B   17057.89485496 -.00000020  00000-0  22810-5 0  9998
2 22676  74.0433  23.5794 0017594  77.1083 283.2032 14.33908090239537
Epoch (UTC): 26 February 2017 21:28:35
Eccentricity: 0.0017594
inclination: 74.0433°
perigee height: 766 km
apogee height: 791 km
right ascension of ascending node: 23.5794°
argument of perigee: 77.1083°
revolutions per day: 14.33908090
mean anomaly at epoch: 283.2032°
orbit number at epoch: 23953

The dashed part of the orbit path shows where the satellite is in the earth's shadow,  

DLR